Location: Unspecified
(40.7945°N, 111.1337°W)
Time: 06:06:18
(UTC-07:00)

CZ-3 Stage 3 - Visible Passes

Search period start: 19 November 2018 00:00
Search period end: 29 November 2018 00:00
Orbit: 380 x 34812 km, 30.3° (Epoch: 17 November)

Date Brightness Start Highest point End Pass type
(mag) Time Alt. Az. Time Alt. Az. Time Alt. Az.
19 Nov 8.4 17:34:28 10° W 19:41:00 38° W 02:14:06 11° WSW visible
20 Nov 7.8 13:40:24 10° SW 17:16:52 76° SSW 22:46:30 43° S visible
21 Nov 8.1 10:10:37 10° SSE 17:05:14 56° ESE 19:18:54 14° ESE visible
22 Nov 8.3 17:23:52 10° W 19:30:26 39° W 02:04:15 10° WSW visible
23 Nov 7.7 13:30:06 10° SW 17:06:01 76° SSW 22:39:26 39° S visible
24 Nov 8.1 09:59:57 10° SSE 16:54:20 55° ESE 19:11:16 10° ESE visible
25 Nov 8.2 17:13:17 10° W 19:19:49 39° W 01:51:55 10° WSW visible
26 Nov 7.6 13:19:48 10° SW 16:55:13 77° SSW 22:32:24 34° S visible
27 Nov 8.0 09:49:19 10° SSE 16:43:28 55° ESE 19:00:54 10° ESE visible
